Time,TemperatureF,DewpointF,PressureIn,WindDirection,WindDirectionDegrees,WindSpeedMPH,WindSpeedGustMPH,Humidity,HourlyPrecipIn,Conditions,Clouds,dailyrainin,SoftwareType,DateUTC
2013-07-21 13:33:00,80.1,60.4,30.03,SSE,159,0.0,0.0,51,0.11,,---,0.11,VWS V14.00,2013-07-21 17:33:00,
2013-07-21 13:38:00,79.9,61.8,30.03,ENE,77,0.0,0.0,54,0.10,,---,0.11,VWS V14.00,2013-07-21 17:38:00,
2013-07-21 13:39:00,80.1,62.0,30.03,East,95,0.0,0.0,54,0.10,,---,0.11,VWS V14.00,2013-07-21 17:39:00,
2013-07-21 13:40:00,80.3,62.2,30.03,East,96,0.0,0.0,54,0.10,,---,0.11,VWS V14.00,2013-07-21 17:40:00,
2013-07-21 13:42:00,80.8,62.6,30.03,East,96,0.0,0.0,54,0.09,,---,0.11,VWS V14.00,2013-07-21 17:42:00,
2013-07-21 13:47:00,80.8,61.0,30.04,East,90,2.0,3.0,51,0.09,,---,0.11,VWS V14.00,2013-07-21 17:47:00,
2013-07-21 13:52:00,80.2,61.0,30.03,East,90,0.0,0.0,52,0.08,,---,0.11,VWS V14.00,2013-07-21 17:52:00,
2013-07-21 13:57:00,79.8,60.6,30.03,East,90,0.0,0.0,52,0.07,,---,0.11,VWS V14.00,2013-07-21 17:57:00,
2013-07-21 14:02:00,79.1,60.0,30.03,West,265,0.0,0.0,52,0.07,,---,0.11,VWS V14.00,2013-07-21 18:02:00,
2013-07-21 14:07:00,78.7,61.7,30.03,West,265,0.0,0.0,56,0.06,,---,0.11,VWS V14.00,2013-07-21 18:07:00,
2013-07-21 14:13:00,79.0,62.5,30.03,West,262,0.0,1.0,57,0.06,,---,0.11,VWS V14.00,2013-07-21 18:13:00,
2013-07-21 14:18:00,80.0,63.4,30.03,West,261,0.0,0.0,57,0.05,,---,0.11,VWS V14.00,2013-07-21 18:18:00,
2013-07-21 14:23:00,80.4,62.2,30.03,West,261,0.0,0.0,54,0.05,,---,0.11,VWS V14.00,2013-07-21 18:23:00,
2013-07-21 14:28:00,79.9,59.6,30.03,East,84,1.0,1.0,50,0.04,,---,0.11,VWS V14.00,2013-07-21 18:28:00,
2013-07-21 14:34:00,80.1,60.9,30.03,East,89,0.0,0.0,52,0.04,,---,0.11,VWS V14.00,2013-07-21 18:34:00,
2013-07-21 14:39:00,80.7,59.8,30.03,ENE,64,0.0,0.0,49,0.04,,---,0.11,VWS V14.00,2013-07-21 18:39:00,
2013-07-21 14:44:00,81.5,61.1,30.03,ENE,68,0.0,0.0,50,0.03,,---,0.11,VWS V14.00,2013-07-21 18:44:00,
2013-07-21 14:49:00,82.1,59.9,30.03,NE,54,0.0,0.0,47,0.03,,---,0.11,VWS V14.00,2013-07-21 18:49:00,
2013-07-21 14:54:00,82.1,58.7,30.03,NE,54,0.0,0.0,45,0.03,,---,0.11,VWS V14.00,2013-07-21 18:54:00,
2013-07-21 16:07:00,84.3,56.0,30.02,South,180,0.0,2.0,38,0.00,,---,0.11,VWS V14.00,2013-07-21 20:07:00,
2013-07-21 16:12:00,83.4,55.2,30.01,SE,142,0.0,0.0,38,0.00,,---,0.11,VWS V14.00,2013-07-21 20:12:00,
2013-07-21 16:17:00,83.6,56.0,30.01,SE,132,0.0,0.0,39,0.00,,---,0.11,VWS V14.00,2013-07-21 20:17:00,
2013-07-21 16:22:00,84.0,57.1,30.01,SE,132,0.0,0.0,40,0.00,,---,0.11,VWS V14.00,2013-07-21 20:22:00,
2013-07-21 16:27:00,84.9,57.2,30.01,SE,133,0.0,0.0,39,0.00,,---,0.11,VWS V14.00,2013-07-21 20:27:00,
2013-07-21 16:33:00,85.0,55.1,30.01,SSE,153,0.0,0.0,36,0.00,,---,0.11,VWS V14.00,2013-07-21 20:33:00,
2013-07-21 16:38:00,84.2,55.9,30.01,SSE,152,0.0,0.0,38,0.00,,---,0.11,VWS V14.00,2013-07-21 20:38:00,
2013-07-21 16:43:00,84.0,55.7,30.01,East,82,1.0,1.0,38,0.00,,---,0.11,VWS V14.00,2013-07-21 20:43:00,
2013-07-21 16:48:00,83.4,55.9,30.01,SSE,157,0.0,0.0,39,0.00,,---,0.11,VWS V14.00,2013-07-21 20:48:00,
2013-07-21 16:53:00,82.9,54.7,30.01,South,175,0.0,0.0,38,0.00,,---,0.11,VWS V14.00,2013-07-21 20:53:00,
2013-07-21 16:58:00,82.3,55.6,30.01,SSW,203,0.0,0.0,40,0.00,,---,0.11,VWS V14.00,2013-07-21 20:58:00,
2013-07-21 17:04:00,82.5,55.8,30.01,SSW,203,0.0,1.0,40,0.00,,---,0.11,VWS V14.00,2013-07-21 21:04:00,
2013-07-21 17:09:00,82.8,57.4,30.00,SSW,203,0.0,0.0,42,0.00,,---,0.11,VWS V14.00,2013-07-21 21:09:00,
2013-07-21 17:14:00,82.9,56.1,30.00,SE,134,0.0,0.0,40,0.00,,---,0.11,VWS V14.00,2013-07-21 21:14:00,
2013-07-21 17:19:00,82.3,55.6,30.00,SE,138,0.0,0.0,40,0.00,,---,0.11,VWS V14.00,2013-07-21 21:19:00,
2013-07-21 17:24:00,82.7,57.3,29.99,SE,138,0.0,0.0,42,0.00,,---,0.11,VWS V14.00,2013-07-21 21:24:00,
2013-07-21 17:30:00,83.6,58.8,29.99,SE,139,0.0,0.0,43,0.00,,---,0.11,VWS V14.00,2013-07-21 21:30:00,
2013-07-21 17:35:00,83.4,56.6,29.99,ESE,115,0.0,0.0,40,0.00,,---,0.11,VWS V14.00,2013-07-21 21:35:00,
2013-07-21 17:40:00,83.2,57.8,29.99,ESE,115,0.0,0.0,42,0.00,,---,0.11,VWS V14.00,2013-07-21 21:40:00,
2013-07-21 17:45:00,83.0,56.9,29.99,ESE,114,0.0,0.0,41,0.00,,---,0.11,VWS V14.00,2013-07-21 21:45:00,
2013-07-21 17:51:00,82.5,57.1,29.99,ESE,114,0.0,0.0,42,0.00,,---,0.11,VWS V14.00,2013-07-21 21:51:00,
2013-07-21 17:56:00,82.2,56.8,29.99,ESE,114,0.0,0.0,42,0.00,,---,0.11,VWS V14.00,2013-07-21 21:56:00,
2013-07-21 18:01:00,82.1,58.0,29.98,ESE,114,0.0,0.0,44,0.00,,---,0.11,VWS V14.00,2013-07-21 22:01:00,
2013-07-21 18:06:00,81.7,57.7,29.98,ESE,114,0.0,0.0,44,0.00,,---,0.11,VWS V14.00,2013-07-21 22:06:00,
2013-07-21 18:11:00,82.2,58.8,29.98,ESE,114,0.0,0.0,45,0.00,,---,0.11,VWS V14.00,2013-07-21 22:11:00,
2013-07-21 18:16:00,82.8,59.3,29.99,ESE,114,0.0,0.0,45,0.00,,---,0.11,VWS V14.00,2013-07-21 22:16:00,
2013-07-21 18:21:00,82.9,59.4,29.99,ESE,114,0.0,0.0,45,0.00,,---,0.11,VWS V14.00,2013-07-21 22:21:00,
2013-07-21 18:27:00,82.0,58.0,29.99,ESE,114,0.0,0.0,44,0.00,,---,0.11,VWS V14.00,2013-07-21 22:27:00,
2013-07-21 18:32:00,81.6,58.2,29.99,ESE,114,0.0,0.0,45,0.00,,---,0.11,VWS V14.00,2013-07-21 22:32:00,
2013-07-21 18:37:00,81.2,57.9,29.99,ESE,114,1.0,2.0,45,0.00,,---,0.11,VWS V14.00,2013-07-21 22:37:00,
2013-07-21 18:42:00,80.9,58.2,29.99,ESE,114,0.0,0.0,46,0.00,,---,0.11,VWS V14.00,2013-07-21 22:42:00,
2013-07-21 18:47:00,80.7,59.2,29.99,ESE,114,0.0,0.0,48,0.00,,---,0.11,VWS V14.00,2013-07-21 22:47:00,
2013-07-21 18:52:00,80.4,60.1,29.98,ESE,114,0.0,0.0,50,0.00,,---,0.11,VWS V14.00,2013-07-21 22:52:00,
2013-07-21 18:57:00,79.7,61.1,29.98,ESE,114,0.0,0.0,53,0.00,,---,0.11,VWS V14.00,2013-07-21 22:57:00,
2013-07-21 19:02:00,78.9,61.4,29.98,ESE,114,0.0,0.0,55,0.00,,---,0.11,VWS V14.00,2013-07-21 23:02:00,
2013-07-21 19:08:00,78.1,62.1,29.99,ESE,114,0.0,0.0,58,0.00,,---,0.11,VWS V14.00,2013-07-21 23:08:00,
2013-07-21 19:13:00,77.8,62.3,29.98,ESE,114,0.0,0.0,59,0.00,,---,0.11,VWS V14.00,2013-07-21 23:13:00,
2013-07-21 19:18:00,77.7,63.2,29.99,ESE,114,0.0,0.0,61,0.00,,---,0.11,VWS V14.00,2013-07-21 23:18:00,
2013-07-21 19:23:00,77.4,63.4,29.99,ESE,114,0.0,0.0,62,0.00,,---,0.11,VWS V14.00,2013-07-21 23:23:00,
2013-07-21 19:28:00,77.2,64.5,29.98,ESE,114,0.0,0.0,65,0.00,,---,0.11,VWS V14.00,2013-07-21 23:28:00,
2013-07-21 19:33:00,76.9,66.0,29.99,ESE,114,0.0,0.0,69,0.00,,---,0.11,VWS V14.00,2013-07-21 23:33:00,
2013-07-21 19:39:00,76.8,67.9,29.99,ESE,114,0.0,0.0,74,0.00,,---,0.11,VWS V14.00,2013-07-21 23:39:00,
2013-07-21 19:44:00,76.6,68.5,29.99,ESE,114,0.0,0.0,76,0.00,,---,0.11,VWS V14.00,2013-07-21 23:44:00,
2013-07-21 19:49:00,76.6,69.6,29.99,ESE,114,0.0,0.0,79,0.00,,---,0.11,VWS V14.00,2013-07-21 23:49:00,
2013-07-21 19:54:00,76.4,70.1,29.98,ESE,114,0.0,0.0,81,0.00,,---,0.11,VWS V14.00,2013-07-21 23:54:00,
2013-07-21 19:59:00,76.3,70.8,29.99,ESE,114,0.0,0.0,83,0.00,,---,0.11,VWS V14.00,2013-07-21 23:59:00,
2013-07-21 20:04:00,76.1,71.9,29.99,ESE,114,0.0,0.0,87,0.00,,---,0.11,VWS V14.00,2013-07-22 00:04:00,
2013-07-21 20:09:00,75.8,74.3,29.99,ESE,115,0.0,0.0,95,0.00,,---,0.11,VWS V14.00,2013-07-22 00:09:00,
2013-07-21 20:14:00,75.7,75.7,29.99,ESE,114,0.0,0.0,100,0.00,,---,0.11,VWS V14.00,2013-07-22 00:14:00,
2013-07-21 20:20:00,75.3,75.3,29.99,ESE,114,0.0,0.0,100,0.00,,---,0.11,VWS V14.00,2013-07-22 00:20:00,
2013-07-21 20:25:00,75.0,75.0,29.99,ESE,114,0.0,0.0,100,0.00,,---,0.11,VWS V14.00,2013-07-22 00:25:00,
2013-07-21 20:30:00,74.6,74.6,30.00,ESE,114,0.0,0.0,100,0.00,,---,0.11,VWS V14.00,2013-07-22 00:30:00,
2013-07-21 20:35:00,74.1,74.1,30.00,ESE,114,0.0,0.0,100,0.00,,---,0.11,VWS V14.00,2013-07-22 00:35:00,
2013-07-21 20:40:00,73.7,73.7,30.00,ESE,114,0.0,0.0,100,0.00,,---,0.11,VWS V14.00,2013-07-22 00:40:00,
2013-07-21 20:45:00,73.5,73.5,30.00,ESE,114,0.0,0.0,100,0.00,,---,0.11,VWS V14.00,2013-07-22 00:45:00,
2013-07-21 20:51:00,73.3,73.3,30.00,ESE,114,0.0,0.0,100,0.00,,---,0.11,VWS V14.00,2013-07-22 00:51:00,
2013-07-21 20:56:00,73.1,73.1,30.00,ESE,114,0.0,0.0,100,0.00,,---,0.11,VWS V14.00,2013-07-22 00:56:00,
2013-07-21 21:01:00,72.8,72.8,29.99,ESE,114,0.0,0.0,100,0.00,,---,0.11,VWS V14.00,2013-07-22 01:01:00,
2013-07-21 21:06:00,72.6,72.6,30.00,ESE,115,0.0,0.0,100,0.00,,---,0.11,VWS V14.00,2013-07-22 01:06:00,
2013-07-21 21:11:00,72.4,72.4,30.00,ESE,114,0.0,0.0,100,0.00,,---,0.11,VWS V14.00,2013-07-22 01:11:00,
2013-07-21 21:17:00,72.2,72.2,30.00,ESE,114,0.0,0.0,100,0.00,,---,0.11,VWS V14.00,2013-07-22 01:17:00,
2013-07-21 21:22:00,72.0,72.0,30.00,ESE,114,0.0,0.0,100,0.00,,---,0.11,VWS V14.00,2013-07-22 01:22:00,
2013-07-21 21:27:00,71.8,71.8,30.00,ESE,115,0.0,0.0,100,0.00,,---,0.11,VWS V14.00,2013-07-22 01:27:00,
2013-07-21 21:32:00,71.6,71.6,30.00,ESE,114,0.0,0.0,100,0.00,,---,0.11,VWS V14.00,2013-07-22 01:32:00,
2013-07-21 21:37:00,71.5,71.5,30.00,ESE,114,0.0,0.0,100,0.00,,---,0.11,VWS V14.00,2013-07-22 01:37:00,
2013-07-21 21:42:00,71.3,-34.2,30.01,ESE,115,0.0,0.0,1,0.00,,---,0.11,VWS V14.00,2013-07-22 01:42:00,
2013-07-21 21:47:00,71.1,0.6,30.01,ESE,114,0.0,0.0,6,0.00,,---,0.11,VWS V14.00,2013-07-22 01:47:00,
2013-07-21 21:53:00,70.9,0.5,30.01,ESE,114,0.0,0.0,6,0.00,,---,0.11,VWS V14.00,2013-07-22 01:53:00,
2013-07-21 21:58:00,70.8,9.2,30.01,ESE,114,0.0,0.0,9,0.00,,---,0.11,VWS V14.00,2013-07-22 01:58:00,
2013-07-21 22:03:00,70.7,20.8,30.01,ESE,115,0.0,0.0,15,0.00,,---,0.11,VWS V14.00,2013-07-22 02:03:00,
2013-07-21 22:08:00,70.6,25.1,30.01,ESE,114,0.0,0.0,18,0.00,,---,0.11,VWS V14.00,2013-07-22 02:08:00,
2013-07-21 22:13:00,70.4,35.8,30.01,ESE,114,0.0,0.0,28,0.00,,---,0.11,VWS V14.00,2013-07-22 02:13:00,